Time,TemperatureF,DewpointF,PressureIn,WindDirection,WindDirectionDegrees,WindSpeedMPH,WindSpeedGustMPH,Humidity,HourlyPrecipIn,Conditions,Clouds,dailyrainin,SoftwareType,DateUTC
2013-06-09 00:05:00,67.1,56.6,29.79,ESE,115,0.0,0.0,69,0.00,,,0.00,Wunderground v.1.15,2013-06-09 05:05:00,
2013-06-09 00:15:00,66.8,56.3,29.79,ESE,115,0.0,0.0,69,0.00,,,0.00,Wunderground v.1.15,2013-06-09 05:15:00,
2013-06-09 00:24:00,66.3,56.6,29.79,ESE,115,0.0,0.0,71,0.00,,,0.00,Wunderground v.1.15,2013-06-09 05:24:00,
2013-06-09 00:30:00,66.1,56.8,29.79,ESE,115,0.0,1.0,72,0.00,,,0.00,Wunderground v.1.15,2013-06-09 05:30:00,
2013-06-09 00:40:00,66.4,56.7,29.81,SSE,148,1.0,1.0,71,0.00,,,0.00,Wunderground v.1.15,2013-06-09 05:40:00,
2013-06-09 00:49:00,66.8,56.7,29.80,SE,143,1.0,1.0,70,0.00,,,0.00,Wunderground v.1.15,2013-06-09 05:49:00,
2013-06-09 00:54:00,66.9,56.8,29.80,SE,143,1.0,1.0,70,0.00,,,0.00,Wunderground v.1.15,2013-06-09 05:54:00,
2013-06-09 01:05:00,66.9,56.8,29.80,SE,146,0.0,2.0,70,0.00,,,0.00,Wunderground v.1.15,2013-06-09 06:05:00,
2013-06-09 01:15:00,66.9,56.8,29.80,SE,146,0.0,1.0,70,0.00,,,0.00,Wunderground v.1.15,2013-06-09 06:15:00,
2013-06-09 01:25:00,66.8,56.7,29.80,SE,146,0.0,0.0,70,0.00,,,0.00,Wunderground v.1.15,2013-06-09 06:25:00,
2013-06-09 01:34:00,66.4,56.7,29.80,SSE,150,1.0,1.0,71,0.00,,,0.00,Wunderground v.1.15,2013-06-09 06:34:00,
2013-06-09 01:40:00,66.4,56.7,29.80,SE,131,0.0,0.0,71,0.00,,,0.00,Wunderground v.1.15,2013-06-09 06:40:00,
2013-06-09 01:50:00,66.1,56.8,29.79,SE,125,0.0,0.0,72,0.00,,,0.00,Wunderground v.1.15,2013-06-09 06:50:00,
2013-06-09 01:59:00,66.1,56.8,29.79,SE,125,0.0,0.0,72,0.00,,,0.00,Wunderground v.1.15,2013-06-09 06:59:00,
2013-06-09 02:05:00,66.0,56.7,29.79,SE,125,0.0,0.0,72,0.00,,,0.00,Wunderground v.1.15,2013-06-09 07:05:00,
2013-06-09 02:15:00,65.8,56.5,29.79,SE,125,0.0,0.0,72,0.00,,,0.00,Wunderground v.1.15,2013-06-09 07:15:00,
2013-06-09 02:25:00,65.8,56.5,29.78,SE,125,0.0,0.0,72,0.00,,,0.00,Wunderground v.1.15,2013-06-09 07:25:00,
2013-06-09 02:34:00,65.8,56.5,29.78,ESE,111,1.0,1.0,72,0.00,,,0.00,Wunderground v.1.15,2013-06-09 07:34:00,
2013-06-09 02:40:00,65.8,56.5,29.78,ESE,110,0.0,2.0,72,0.00,,,0.00,Wunderground v.1.15,2013-06-09 07:40:00,
2013-06-09 02:50:00,66.0,56.7,29.78,ESE,103,0.0,2.0,72,0.00,,,0.00,Wunderground v.1.15,2013-06-09 07:50:00,
2013-06-09 02:59:00,66.0,56.7,29.78,ESE,103,0.0,0.0,72,0.00,,,0.00,Wunderground v.1.15,2013-06-09 07:59:00,
2013-06-09 03:05:00,66.0,56.7,29.78,ESE,103,0.0,0.0,72,0.00,,,0.00,Wunderground v.1.15,2013-06-09 08:05:00,
2013-06-09 03:15:00,65.8,56.5,29.78,ESE,103,0.0,0.0,72,0.00,,,0.00,Wunderground v.1.15,2013-06-09 08:15:00,
2013-06-09 03:25:00,65.6,57.1,29.78,ESE,103,0.0,0.0,74,0.00,,,0.00,Wunderground v.1.15,2013-06-09 08:25:00,
2013-06-09 03:35:00,65.0,56.9,29.78,ESE,103,0.0,0.0,75,0.00,,,0.00,Wunderground v.1.15,2013-06-09 08:35:00,
2013-06-09 03:45:00,64.5,56.8,29.78,ESE,103,0.0,0.0,76,0.00,,,0.00,Wunderground v.1.15,2013-06-09 08:45:00,
2013-06-09 03:54:00,64.5,56.4,29.78,ESE,103,0.0,0.0,75,0.00,,,0.00,Wunderground v.1.15,2013-06-09 08:54:00,
2013-06-09 03:59:00,64.7,57.0,29.78,ESE,103,0.0,0.0,76,0.00,,,0.00,Wunderground v.1.15,2013-06-09 08:59:00,
2013-06-09 04:05:00,64.5,57.1,29.78,ESE,103,0.0,0.0,77,0.00,,,0.00,Wunderground v.1.15,2013-06-09 09:05:00,
2013-06-09 04:10:00,64.2,57.2,29.78,ESE,103,0.0,0.0,78,0.00,,,0.00,Wunderground v.1.15,2013-06-09 09:10:00,
2013-06-09 04:19:00,63.4,57.1,29.78,ESE,103,0.0,0.0,80,0.00,,,0.00,Wunderground v.1.15,2013-06-09 09:19:00,
2013-06-09 04:25:00,63.4,56.8,29.78,ESE,103,0.0,0.0,79,0.00,,,0.00,Wunderground v.1.15,2013-06-09 09:25:00,
2013-06-09 04:35:00,63.5,57.2,29.77,ESE,103,0.0,0.0,80,0.00,,,0.00,Wunderground v.1.15,2013-06-09 09:35:00,
2013-06-09 04:45:00,63.2,57.3,29.77,ESE,103,0.0,0.0,81,0.00,,,0.00,Wunderground v.1.15,2013-06-09 09:45:00,
2013-06-09 04:55:00,62.7,57.1,29.78,ESE,103,0.0,0.0,82,0.00,,,0.00,Wunderground v.1.15,2013-06-09 09:55:00,
2013-06-09 05:05:00,62.9,56.6,29.77,ESE,103,0.0,0.0,80,0.00,,,0.00,Wunderground v.1.15,2013-06-09 10:05:00,
2013-06-09 05:15:00,63.7,56.7,29.77,ESE,103,0.0,0.0,78,0.00,,,0.00,Wunderground v.1.15,2013-06-09 10:15:00,
2013-06-09 05:24:00,64.3,56.6,29.77,ESE,103,0.0,0.0,76,0.00,,,0.00,Wunderground v.1.15,2013-06-09 10:24:00,
2013-06-09 05:30:00,64.5,56.8,29.77,ESE,103,0.0,0.0,76,0.00,,,0.00,Wunderground v.1.15,2013-06-09 10:30:00,
2013-06-09 05:40:00,64.8,56.7,29.77,ESE,103,0.0,0.0,75,0.00,,,0.00,Wunderground v.1.15,2013-06-09 10:40:00,
2013-06-09 05:50:00,64.8,56.7,29.77,ESE,103,0.0,0.0,75,0.00,,,0.00,Wunderground v.1.15,2013-06-09 10:50:00,
2013-06-09 06:00:00,64.8,56.7,29.77,ESE,103,0.0,0.0,75,0.00,,,0.00,Wunderground v.1.15,2013-06-09 11:00:00,
2013-06-09 06:05:00,64.8,56.7,29.77,ESE,103,0.0,0.0,75,0.00,,,0.00,Wunderground v.1.15,2013-06-09 11:05:00,
2013-06-09 06:14:00,64.8,56.7,29.77,ESE,104,0.0,0.0,75,0.00,,,0.00,Wunderground v.1.15,2013-06-09 11:14:00,
2013-06-09 06:20:00,64.8,56.7,29.77,ESE,104,0.0,0.0,75,0.00,,,0.00,Wunderground v.1.15,2013-06-09 11:20:00,
2013-06-09 06:29:00,65.0,56.9,29.77,ESE,103,0.0,0.0,75,0.00,,,0.00,Wunderground v.1.15,2013-06-09 11:29:00,
2013-06-09 06:35:00,65.0,56.9,29.77,ESE,103,0.0,0.0,75,0.00,,,0.00,Wunderground v.1.15,2013-06-09 11:35:00,
2013-06-09 06:45:00,65.0,56.9,29.77,ESE,103,0.0,0.0,75,0.00,,,0.00,Wunderground v.1.15,2013-06-09 11:45:00,
2013-06-09 06:54:00,65.0,57.6,29.77,ESE,103,0.0,1.0,77,0.00,,,0.00,Wunderground v.1.15,2013-06-09 11:54:00,
2013-06-09 07:00:00,64.8,57.4,29.77,ESE,103,0.0,0.0,77,0.00,,,0.00,Wunderground v.1.15,2013-06-09 12:00:00,
2013-06-09 07:05:00,64.8,57.4,29.77,ESE,103,0.0,0.0,77,0.00,,,0.00,Wunderground v.1.15,2013-06-09 12:05:00,
2013-06-09 07:10:00,64.8,57.4,29.77,ESE,104,0.0,0.0,77,0.00,,,0.00,Wunderground v.1.15,2013-06-09 12:10:00,
2013-06-09 07:20:00,64.8,57.8,29.77,ESE,104,0.0,0.0,78,0.00,,,0.00,Wunderground v.1.15,2013-06-09 12:20:00,
2013-06-09 07:29:00,64.8,57.8,29.77,ESE,104,0.0,0.0,78,0.00,,,0.00,Wunderground v.1.15,2013-06-09 12:29:00,
2013-06-09 07:35:00,65.0,58.0,29.77,ESE,104,0.0,0.0,78,0.00,,,0.00,Wunderground v.1.15,2013-06-09 12:35:00,
2013-06-09 07:45:00,65.0,58.3,29.77,ESE,104,0.0,0.0,79,0.00,,,0.00,Wunderground v.1.15,2013-06-09 12:45:00,
2013-06-09 07:55:00,65.0,58.7,29.77,NNE,12,1.0,3.0,80,0.00,,,0.00,Wunderground v.1.15,2013-06-09 12:55:00,
2013-06-09 08:05:00,65.0,58.7,29.79,North,11,1.0,2.0,80,0.00,,,0.00,Wunderground v.1.15,2013-06-09 13:05:00,
2013-06-09 08:10:00,65.0,58.7,29.79,North,355,1.0,2.0,80,0.00,,,0.01,Wunderground v.1.15,2013-06-09 13:10:00,
2013-06-09 08:20:00,64.8,59.2,29.80,North,355,1.0,1.0,82,0.06,,,0.02,Wunderground v.1.15,2013-06-09 13:20:00,
2013-06-09 08:30:00,64.2,59.6,29.80,NE,55,1.0,2.0,85,0.37,,,0.14,Wunderground v.1.15,2013-06-09 13:30:00,
2013-06-09 08:35:00,63.9,60.0,29.82,West,266,1.0,2.0,87,0.46,,,0.19,Wunderground v.1.15,2013-06-09 13:35:00,
2013-06-09 08:44:00,63.2,59.6,29.82,NNE,28,2.0,2.0,88,0.21,,,0.22,Wunderground v.1.15,2013-06-09 13:44:00,
2013-06-09 08:50:00,62.9,59.6,29.83,NNE,28,2.0,3.0,89,0.18,,,0.24,Wunderground v.1.15,2013-06-09 13:50:00,
2013-06-09 08:59:00,62.3,59.0,29.83,North,5,1.0,2.0,89,0.30,,,0.26,Wunderground v.1.15,2013-06-09 13:59:00,
2013-06-09 09:05:00,62.0,58.7,29.83,ENE,77,1.0,3.0,89,0.16,,,0.28,Wunderground v.1.15,2013-06-09 14:05:00,
2013-06-09 09:14:00,61.6,58.3,29.83,NE,41,1.0,2.0,89,0.28,,,0.30,Wunderground v.1.15,2013-06-09 14:14:00,
2013-06-09 09:30:00,61.2,57.9,29.82,NNE,32,2.0,2.0,89,0.05,,,0.32,Wunderground v.1.15,2013-06-09 14:30:00,
2013-06-09 09:40:00,61.3,58.3,29.82,North,5,1.0,2.0,90,0.00,,,0.32,Wunderground v.1.15,2013-06-09 14:40:00,
2013-06-09 09:45:00,61.3,58.0,29.82,North,5,1.0,2.0,89,0.00,,,0.32,Wunderground v.1.15,2013-06-09 14:45:00,
2013-06-09 09:55:00,61.3,58.0,29.82,North,9,2.0,2.0,89,0.00,,,0.32,Wunderground v.1.15,2013-06-09 14:55:00,
2013-06-09 10:00:00,61.8,58.5,29.82,North,9,1.0,1.0,89,0.00,,,0.32,Wunderground v.1.15,2013-06-09 15:00:00,
2013-06-09 10:05:00,62.0,58.7,29.81,North,9,1.0,1.0,89,0.00,,,0.32,Wunderground v.1.15,2013-06-09 15:05:00,
2013-06-09 10:10:00,61.8,58.5,29.81,North,11,0.0,0.0,89,0.00,,,0.33,Wunderground v.1.15,2013-06-09 15:10:00,
2013-06-09 10:20:00,61.6,58.0,29.81,North,11,0.0,0.0,88,0.10,,,0.36,Wunderground v.1.15,2013-06-09 15:20:00,
2013-06-09 10:30:00,61.3,58.0,29.81,SSW,196,0.0,2.0,89,0.18,,,0.39,Wunderground v.1.15,2013-06-09 15:30:00,
2013-06-09 10:40:00,62.7,60.0,29.80,ESE,115,0.0,1.0,91,0.05,,,0.40,Wunderground v.1.15,2013-06-09 15:40:00,
2013-06-09 10:50:00,63.9,60.9,29.80,ESE,118,1.0,1.0,90,0.05,,,0.40,Wunderground v.1.15,2013-06-09 15:50:00,
2013-06-09 11:00:00,64.3,61.0,29.80,ENE,59,1.0,2.0,89,0.00,,,0.40,Wunderground v.1.15,2013-06-09 16:00:00,
2013-06-09 11:05:00,64.0,60.4,29.81,ENE,59,1.0,2.0,88,0.00,,,0.40,Wunderground v.1.15,2013-06-09 16:05:00,
2013-06-09 11:10:00,63.7,59.8,29.81,SE,126,0.0,0.0,87,0.00,,,0.40,Wunderground v.1.15,2013-06-09 16:10:00,
2013-06-09 11:20:00,63.4,59.5,29.80,SE,129,0.0,1.0,87,0.00,,,0.40,Wunderground v.1.15,2013-06-09 16:20:00,
2013-06-09 11:30:00,63.5,59.9,29.80,SE,131,1.0,2.0,88,0.00,,,0.40,Wunderground v.1.15,2013-06-09 16:30:00,
2013-06-09 11:40:00,64.2,60.6,29.80,SE,132,0.0,0.0,88,0.00,,,0.40,Wunderground v.1.15,2013-06-09 16:40:00,
2013-06-09 11:49:00,64.3,60.7,29.80,SSE,158,1.0,1.0,88,0.00,,,0.40,Wunderground v.1.15,2013-06-09 16:49:00,
2013-06-09 11:55:00,64.7,61.1,29.80,SSE,158,0.0,1.0,88,0.00,,,0.40,Wunderground v.1.15,2013-06-09 16:55:00,
2013-06-09 12:05:00,65.8,62.1,29.79,ESE,111,1.0,2.0,88,0.00,,,0.40,Wunderground v.1.15,2013-06-09 17:05:00,
2013-06-09 12:15:00,66.1,61.5,29.79,ESE,109,1.0,1.0,85,0.00,,,0.40,Wunderground v.1.15,2013-06-09 17:15:00,
2013-06-09 12:25:00,66.8,62.8,29.76,SSE,167,1.0,1.0,87,0.00,,,0.40,Wunderground v.1.15,2013-06-09 17:25:00,
2013-06-09 12:35:00,66.9,61.9,29.80,South,180,1.0,3.0,84,0.00,,,0.40,Wunderground v.1.15,2013-06-09 17:35:00,
2013-06-09 12:45:00,68.1,63.4,29.80,WSW,238,1.0,3.0,85,0.00,,,0.40,Wunderground v.1.15,2013-06-09 17:45:00,
2013-06-09 12:55:00,68.8,62.7,29.80,South,172,3.0,3.0,81,0.00,,,0.40,Wunderground v.1.15,2013-06-09 17:55:00,
2013-06-09 13:05:00,69.8,63.7,29.79,South,174,2.0,4.0,81,0.00,,,0.40,Wunderground v.1.15,2013-06-09 18:05:00,
2013-06-09 13:15:00,70.9,64.8,29.79,South,174,2.0,2.0,81,0.00,,,0.40,Wunderground v.1.15,2013-06-09 18:15:00,
2013-06-09 13:25:00,71.6,64.4,29.78,SSE,154,2.0,4.0,78,0.00,,,0.40,Wunderground v.1.15,2013-06-09 18:25:00,
2013-06-09 13:35:00,72.3,65.1,29.77,West,262,3.0,4.0,78,0.00,,,0.40,Wunderground v.1.15,2013-06-09 18:35:00,
2013-06-09 13:45:00,73.3,65.3,29.77,South,172,3.0,3.0,76,0.00,,,0.40,Wunderground v.1.15,2013-06-09 18:45:00,
2013-06-09 13:55:00,73.7,64.9,29.76,WSW,248,4.0,4.0,74,0.00,,,0.40,Wunderground v.1.15,2013-06-09 18:55:00,
2013-06-09 14:05:00,74.7,64.7,29.76,WNW,288,2.0,4.0,71,0.00,,,0.40,Wunderground v.1.15,2013-06-09 19:05:00,
2013-06-09 14:15:00,74.6,64.2,29.76,SW,232,4.0,4.0,70,0.00,,,0.40,Wunderground v.1.15,2013-06-09 19:15:00,
2013-06-09 14:24:00,75.8,64.1,29.75,North,355,2.0,3.0,67,0.00,,,0.40,Wunderground v.1.15,2013-06-09 19:24:00,
2013-06-09 14:30:00,76.5,64.7,29.75,SSW,198,2.0,2.0,67,0.00,,,0.40,Wunderground v.1.15,2013-06-09 19:30:00,
2013-06-09 14:40:00,76.1,62.6,29.75,West,277,3.0,4.0,63,0.00,,,0.40,Wunderground v.1.15,2013-06-09 19:40:00,
2013-06-09 14:50:00,76.8,65.0,29.74,WSW,241,2.0,2.0,67,0.00,,,0.40,Wunderground v.1.15,2013-06-09 19:50:00,
2013-06-09 15:00:00,77.2,62.2,29.74,WSW,244,3.0,3.0,60,0.00,,,0.40,Wunderground v.1.15,2013-06-09 20:00:00,
2013-06-09 15:05:00,77.0,61.1,29.74,WSW,237,3.0,4.0,58,0.00,,,0.40,Wunderground v.1.15,2013-06-09 20:05:00,
2013-06-09 15:15:00,77.7,61.3,29.74,NW,323,2.0,3.0,57,0.00,,,0.40,Wunderground v.1.15,2013-06-09 20:15:00,
2013-06-09 15:25:00,77.6,61.7,29.73,SE,145,1.0,1.0,58,0.00,,,0.40,Wunderground v.1.15,2013-06-09 20:25:00,
2013-06-09 15:30:00,77.6,61.2,29.73,NE,36,1.0,1.0,57,0.00,,,0.40,Wunderground v.1.15,2013-06-09 20:30:00,
2013-06-09 15:40:00,78.3,61.3,29.74,SW,236,2.0,2.0,56,0.00,,,0.40,Wunderground v.1.15,2013-06-09 20:40:00,
2013-06-09 15:50:00,78.8,58.6,29.73,NE,51,2.0,4.0,50,0.00,,,0.40,Wunderground v.1.15,2013-06-09 20:50:00,
2013-06-09 15:59:00,78.6,59.5,29.73,South,186,2.0,2.0,52,0.00,,,0.40,Wunderground v.1.15,2013-06-09 20:59:00,
2013-06-09 16:05:00,79.4,59.1,29.73,NW,311,1.0,2.0,50,0.00,,,0.40,Wunderground v.1.15,2013-06-09 21:05:00,
2013-06-09 16:15:00,79.6,58.2,29.73,NW,319,2.0,4.0,48,0.00,,,0.40,Wunderground v.1.15,2013-06-09 21:15:00,
2013-06-09 16:25:00,79.2,58.4,29.74,SW,223,2.0,2.0,49,0.00,,,0.40,Wunderground v.1.15,2013-06-09 21:25:00,
2013-06-09 16:35:00,78.5,58.3,29.73,NNE,26,1.0,2.0,50,0.00,,,0.40,Wunderground v.1.15,2013-06-09 21:35:00,
2013-06-09 16:45:00,79.2,60.1,29.73,NNW,338,0.0,1.0,52,0.00,,,0.40,Wunderground v.1.15,2013-06-09 21:45:00,
2013-06-09 16:50:00,79.9,60.2,29.72,SW,224,1.0,3.0,51,0.00,,,0.40,Wunderground v.1.15,2013-06-09 21:50:00,
2013-06-09 17:00:00,79.9,57.9,29.72,NNW,329,2.0,2.0,47,0.00,,,0.40,Wunderground v.1.15,2013-06-09 22:00:00,
2013-06-09 17:05:00,79.8,57.2,29.72,WNW,302,2.0,2.0,46,0.00,,,0.40,Wunderground v.1.15,2013-06-09 22:05:00,
2013-06-09 17:10:00,79.9,60.7,29.72,WSW,245,1.0,4.0,52,0.00,,,0.40,Wunderground v.1.15,2013-06-09 22:10:00,
2013-06-09 17:20:00,80.1,59.2,29.72,SW,230,2.0,2.0,49,0.00,,,0.40,Wunderground v.1.15,2013-06-09 22:20:00,
2013-06-09 17:30:00,79.6,57.0,29.72,WSW,253,3.0,3.0,46,0.00,,,0.40,Wunderground v.1.15,2013-06-09 22:30:00,
2013-06-09 17:35:00,79.4,57.4,29.72,NNW,334,3.0,3.0,47,0.00,,,0.40,Wunderground v.1.15,2013-06-09 22:35:00,
2013-06-09 17:45:00,79.6,57.0,29.72,NNW,334,1.0,2.0,46,0.00,,,0.40,Wunderground v.1.15,2013-06-09 22:45:00,
2013-06-09 17:55:00,79.4,57.4,29.72,SW,225,1.0,1.0,47,0.00,,,0.40,Wunderground v.1.15,2013-06-09 22:55:00,
2013-06-09 18:05:00,78.8,58.0,29.72,WNW,294,1.0,1.0,49,0.00,,,0.40,Wunderground v.1.15,2013-06-09 23:05:00,
2013-06-09 18:15:00,79.0,57.6,29.72,WSW,246,1.0,1.0,48,0.00,,,0.40,Wunderground v.1.15,2013-06-09 23:15:00,
2013-06-09 18:20:00,79.0,57.6,29.72,SW,235,2.0,2.0,48,0.00,,,0.40,Wunderground v.1.15,2013-06-09 23:20:00,
2013-06-09 18:30:00,78.8,57.4,29.72,West,264,1.0,4.0,48,0.00,,,0.40,Wunderground v.1.15,2013-06-09 23:30:00,
2013-06-09 18:40:00,77.7,57.6,29.72,NW,319,2.0,2.0,50,0.00,,,0.40,Wunderground v.1.15,2013-06-09 23:40:00,
2013-06-09 18:50:00,77.4,57.9,29.72,WSW,250,1.0,4.0,51,0.00,,,0.40,Wunderground v.1.15,2013-06-09 23:50:00,
2013-06-09 18:55:00,77.0,58.0,29.72,WSW,250,1.0,4.0,52,0.00,,,0.40,Wunderground v.1.15,2013-06-09 23:55:00,
2013-06-09 19:05:00,76.8,58.4,29.72,West,267,0.0,1.0,53,0.00,,,0.40,Wunderground v.1.15,2013-06-10 00:05:00,
2013-06-09 19:10:00,76.7,58.3,29.72,West,267,0.0,0.0,53,0.00,,,0.40,Wunderground v.1.15,2013-06-10 00:10:00,
2013-06-09 19:15:00,76.7,58.3,29.72,West,267,0.0,0.0,53,0.00,,,0.40,Wunderground v.1.15,2013-06-10 00:15:00,
2013-06-09 19:25:00,76.3,58.4,29.72,West,259,1.0,2.0,54,0.00,,,0.40,Wunderground v.1.15,2013-06-10 00:25:00,
2013-06-09 19:30:00,76.1,58.8,29.72,SW,214,1.0,1.0,55,0.00,,,0.40,Wunderground v.1.15,2013-06-10 00:30:00,
2013-06-09 19:40:00,75.8,59.0,29.73,SW,214,0.0,0.0,56,0.00,,,0.40,Wunderground v.1.15,2013-06-10 00:40:00,
2013-06-09 19:45:00,75.6,59.3,29.73,SW,214,0.0,0.0,57,0.00,,,0.40,Wunderground v.1.15,2013-06-10 00:45:00,
2013-06-09 19:55:00,75.3,60.0,29.73,SW,214,0.0,0.0,59,0.00,,,0.40,Wunderground v.1.15,2013-06-10 00:55:00,
2013-06-09 20:05:00,75.1,59.3,29.73,SW,214,0.0,0.0,58,0.00,,,0.40,Wunderground v.1.15,2013-06-10 01:05:00,
2013-06-09 20:14:00,74.6,59.3,29.73,SW,214,0.0,0.0,59,0.00,,,0.40,Wunderground v.1.15,2013-06-10 01:14:00,
2013-06-09 20:20:00,74.0,60.2,29.72,SW,214,0.0,0.0,62,0.00,,,0.40,Wunderground v.1.15,2013-06-10 01:20:00,
2013-06-09 20:29:00,72.5,60.1,29.72,WSW,240,0.0,0.0,65,0.00,,,0.40,Wunderground v.1.15,2013-06-10 01:29:00,
2013-06-09 20:35:00,72.0,60.0,29.73,WSW,242,0.0,0.0,66,0.00,,,0.40,Wunderground v.1.15,2013-06-10 01:35:00,
2013-06-09 20:45:00,70.8,60.9,29.73,East,93,0.0,0.0,71,0.00,,,0.40,Wunderground v.1.15,2013-06-10 01:45:00,
2013-06-09 20:55:00,69.6,60.2,29.73,East,93,0.0,0.0,72,0.00,,,0.40,Wunderground v.1.15,2013-06-10 01:55:00,
2013-06-09 21:05:00,68.6,60.4,29.74,East,93,0.0,0.0,75,0.00,,,0.40,Wunderground v.1.15,2013-06-10 02:05:00,
2013-06-09 21:15:00,67.8,60.7,29.74,East,93,0.0,0.0,78,0.00,,,0.40,Wunderground v.1.15,2013-06-10 02:15:00,
2013-06-09 21:20:00,67.3,60.6,29.74,East,93,0.0,0.0,79,0.00,,,0.40,Wunderground v.1.15,2013-06-10 02:20:00,
2013-06-09 21:29:00,66.1,60.4,29.74,East,93,0.0,0.0,82,0.00,,,0.40,Wunderground v.1.15,2013-06-10 02:29:00,
2013-06-09 21:35:00,65.8,60.5,29.75,East,93,0.0,0.0,83,0.00,,,0.40,Wunderground v.1.15,2013-06-10 02:35:00,
2013-06-09 21:45:00,65.3,60.3,29.75,East,93,0.0,0.0,84,0.00,,,0.40,Wunderground v.1.15,2013-06-10 02:45:00,
2013-06-09 21:55:00,64.7,60.1,29.75,East,93,0.0,0.0,85,0.00,,,0.40,Wunderground v.1.15,2013-06-10 02:55:00,
2013-06-09 22:05:00,64.2,59.9,29.76,East,93,0.0,0.0,86,0.00,,,0.40,Wunderground v.1.15,2013-06-10 03:05:00,
2013-06-09 22:10:00,63.9,59.6,29.76,East,93,0.0,0.0,86,0.00,,,0.40,Wunderground v.1.15,2013-06-10 03:10:00,
2013-06-09 22:20:00,63.4,59.5,29.76,East,93,0.0,0.0,87,0.00,,,0.40,Wunderground v.1.15,2013-06-10 03:20:00,
2013-06-09 22:30:00,62.9,59.0,29.76,East,93,0.0,0.0,87,0.00,,,0.40,Wunderground v.1.15,2013-06-10 03:30:00,
2013-06-09 22:40:00,62.4,58.8,29.77,East,93,0.0,0.0,88,0.00,,,0.40,Wunderground v.1.15,2013-06-10 03:40:00,
2013-06-09 22:50:00,62.3,58.7,29.77,East,93,0.0,0.0,88,0.00,,,0.40,Wunderground v.1.15,2013-06-10 03:50:00,
2013-06-09 22:55:00,62.0,58.4,29.77,East,93,0.0,0.0,88,0.00,,,0.40,Wunderground v.1.15,2013-06-10 03:55:00,
2013-06-09 23:05:00,61.6,58.3,29.77,East,93,0.0,0.0,89,0.00,,,0.40,Wunderground v.1.15,2013-06-10 04:05:00,
2013-06-09 23:10:00,61.6,58.3,29.77,East,93,0.0,0.0,89,0.00,,,0.40,Wunderground v.1.15,2013-06-10 04:10:00,
2013-06-09 23:15:00,61.5,58.2,29.77,East,93,0.0,0.0,89,0.00,,,0.40,Wunderground v.1.15,2013-06-10 04:15:00,
2013-06-09 23:20:00,61.3,58.3,29.77,East,93,0.0,0.0,90,0.00,,,0.40,Wunderground v.1.15,2013-06-10 04:20:00,
2013-06-09 23:30:00,61.2,58.2,29.77,East,93,0.0,0.0,90,0.00,,,0.40,Wunderground v.1.15,2013-06-10 04:30:00,
2013-06-09 23:40:00,60.9,57.9,29.77,East,93,0.0,0.0,90,0.00,,,0.40,Wunderground v.1.15,2013-06-10 04:40:00,
2013-06-09 23:45:00,60.7,57.7,29.77,East,93,0.0,0.0,90,0.00,,,0.40,Wunderground v.1.15,2013-06-10 04:45:00,
2013-06-09 23:55:00,60.4,57.5,29.77,East,93,0.0,0.0,90,0.00,,,0.40,Wunderground v.1.15,2013-06-10 04:55:00,